Location: *
(47.6569°N, 7.4256°E)
Time: 23:08:05
(UTC+00:00)

Cosmos 2237 Rocket - Pass Details

Date: 14 December 2019
Orbit: 836 x 849 km, 71.0° (Epoch: 22 January)

Event Time Altitude Azimuth Distance (km) Brightness Sun altitude
Rises 16:31:23 0° 210° (SSW) 3,400 6.4 -8.5°
Reaches altitude 10° 16:33:50 10° 212° (SSW) 2,468 5.6 -8.9°
Maximum altitude 16:39:31 77° 298° (WNW) 874 2.4 -9.8°
Drops below altitude 10° 16:45:13 10° 25° (NNE) 2,479 4.2 -10.6°
Enters shadow 16:46:20 - 26° (NNE) 2,903 4.5 -10.8°
